[[{"header":{"parameterUnit":"m.s-1","parameterCategory":1,"la1":30.2991,"la2":30.254,"lo1":-89.0895,"lo2":-89.0444,"dy":0.0017,"dx":0.0017,"nx":28,"ny":28,"refTime":"2026-02-09T09:00:00:Z","depth":0,"parameterNumber":2,"parameterNumberName":"U-component_of_WINDS"},"data":[0,0,0,0,0,0,0,0,0,0,0,0,0,0,0,0,0,0,0,0,0,0,0,0,0,0,0,0,0,0,0,0,0,0,0,0,0,0,0,0,0,0,0,0,0,0,0,0,0,0,0,0,0,0,0,0,0,0,-1.2359,-1.2359,0,-1.2421,-1.2422,-1.2423,-1.2439,-1.2438,-1.2438,-1.2437,-1.2501,-1.2503,-1.2506,0,0,0,0,0,0,0,0,0,0,0,0,0,-1.2252,-1.2254,-1.2359,-1.2359,-1.236,-1.2421,-1.2422,-1.2423,-1.2439,-1.2438,-1.2438,-1.2437,-1.2501,-1.2503,-1.2506,0,0,0,0,0,0,0,0,0,0,0,0,0,-1.2305,-1.2255,-1.2358,-1.2375,-1.2377,-1.2421,-1.2422,-1.2423,-1.2439,-1.2438,-1.2437,-1.2437,-1.25,-1.2503,-1.2506,-1.2537,0,0,-1.2516,-1.2517,0,0,0,0,0,0,0,0,-1.2302,-1.2309,-1.2372,-1.2374,-1.2377,-1.2422,-1.2408,-1.2461,-1.2439,-1.2415,-1.2437,-1.2437,-1.2475,-1.248,-1.2494,-1.254,-1.2543,-1.2516,-1.2518,-1.2519,-1.252,0,0,0,0,0,0,0,-1.2298,-1.2306,-1.2383,-1.2373,-1.2376,-1.238,-1.2387,-1.2418,-1.2448,-1.2417,-1.2419,-1.2426,-1.2476,-1.249,-1.2495,-1.2544,-1.2516,-1.2519,-1.252,-1.2522,-1.2619,-1.262,0,0,0,0,0,0,-1.2292,-1.2303,-1.2381,-1.2385,-1.2337,-1.2382,-1.239,-1.2408,-1.2448,-1.2453,-1.2426,-1.2426,-1.2485,-1.2491,-1.2497,-1.2536,-1.2519,-1.2522,-1.2524,-1.2619,-1.2619,-1.262,0,0,0,0,0,0,-1.2289,-1.2299,-1.2379,-1.2345,-1.2355,-1.2385,-1.2405,-1.2409,-1.2423,-1.2454,-1.246,-1.2435,-1.2485,-1.2493,-1.2527,-1.2539,-1.2523,-1.2526,-1.2618,-1.2619,-1.262,-1.2614,0,0,0,0,0,0,-1.2286,-1.2298,-1.231,-1.2345,-1.2357,-1.2408,-1.2405,-1.2411,-1.2429,-1.2429,-1.2464,-1.2469,-1.2485,-1.2522,-1.253,-1.2543,-1.2529,-1.2617,-1.2618,-1.2619,-1.2613,-1.2615,-1.2616,0,0,0,0,0,-1.2283,-1.2306,-1.231,-1.232,-1.2373,-1.2408,-1.2415,-1.2433,-1.2429,-1.2442,-1.2462,-1.2468,-1.2536,-1.2526,-1.2535,-1.2548,-1.2616,-1.2618,-1.2619,-1.2613,-1.2614,-1.2616,0,0,0,0,0,0,-1.2271,-1.2311,-1.2316,-1.2352,-1.2376,-1.2411,-1.2427,-1.2434,-1.2461,-1.246,-1.2482,-1.2489,-1.2522,-1.2539,-1.2526,-1.258,-1.2576,-1.258,-1.2568,-1.257,-1.2571,-1.2566,-1.2531,0,0,0,0,0,-1.2273,-1.2299,-1.2332,-1.236,-1.2372,-1.2397,-1.2413,-1.2425,-1.2452,-1.2462,-1.2485,-1.251,-1.2537,-1.2555,-1.2582,-1.2616,-1.2624,-1.263,-1.2631,-1.2632,-1.2634,-1.2653,-1.2656,-1.2626,-1.2626,-1.2625,0,0,-1.2277,-1.2301,-1.2316,-1.2358,-1.2379,-1.2404,-1.2406,-1.2433,-1.2452,-1.2466,-1.25,-1.2517,-1.2547,-1.2581,-1.2598,-1.2596,-1.2645,-1.2634,-1.2635,-1.2637,-1.2655,-1.2658,-1.2661,-1.2627,-1.2626,-1.2626,0,0,-1.2296,-1.2318,-1.2343,-1.2364,-1.2395,-1.2412,-1.2418,-1.2451,-1.2463,-1.2497,-1.2508,-1.2532,-1.2578,-1.2599,-1.2615,-1.2643,-1.265,-1.2651,-1.2658,-1.2676,-1.2678,-1.2681,-1.269,-1.2693,-1.2654,-1.2654,-1.2654,0,-1.2297,-1.2336,-1.2355,-1.2382,-1.24,-1.2414,-1.2439,-1.2459,-1.2497,-1.2509,-1.2507,-1.2565,-1.2587,-1.2626,-1.2632,-1.2646,-1.2653,-1.2647,-1.2677,-1.2679,-1.2681,-1.269,-1.2694,-1.2654,-1.2654,-1.2654,-1.2654,0,-1.2335,-1.2362,-1.2378,-1.2415,-1.2435,-1.2461,-1.2484,-1.2502,-1.2512,-1.2529,-1.2563,-1.2589,-1.2621,-1.2632,-1.2642,-1.2672,-1.267,-1.2672,-1.2668,-1.2684,-1.2693,-1.2696,-1.2654,-1.2654,-1.2654,-1.2654,0,0,-1.2348,-1.2395,-1.2401,-1.2417,-1.2453,-1.2474,-1.2501,-1.2532,-1.2547,-1.2573,-1.2596,-1.2635,-1.2637,-1.2656,-1.2669,-1.2685,-1.2704,-1.2685,-1.2686,-1.2687,-1.2738,-1.2736,-1.2739,-1.2709,-1.271,-1.2711,-1.2735,0,-1.2371,-1.2419,-1.2437,-1.2476,-1.2501,-1.2515,-1.2539,-1.2563,-1.258,-1.2603,-1.2622,-1.2649,-1.265,-1.2661,-1.2678,-1.2698,-1.2715,-1.2697,-1.273,-1.2731,-1.2721,-1.2744,-1.2742,-1.2764,-1.2739,-1.274,-1.274,0,-1.2405,-1.2431,-1.2472,-1.2505,-1.2516,-1.2536,-1.2566,-1.2589,-1.2617,-1.2628,-1.2649,-1.2661,-1.2689,-1.2684,-1.2724,-1.2711,-1.2726,-1.2738,-1.2739,-1.2742,-1.2736,-1.2747,-1.2772,-1.2774,-1.2746,-1.2745,-1.2745,0,-1.2409,-1.2455,-1.2486,-1.25,-1.2538,-1.2552,-1.2569,-1.2596,-1.2614,-1.264,-1.2652,-1.2681,-1.2697,-1.272,-1.2739,-1.2734,-1.2777,-1.2773,-1.2786,-1.2785,-1.2793,-1.2792,-1.282,-1.2805,-1.2805,-1.2804,-1.2804,0,-1.2432,-1.2457,-1.2488,-1.2507,-1.2535,-1.2556,-1.2583,-1.2601,-1.2625,-1.2647,-1.2661,-1.2682,-1.2707,-1.2731,-1.2747,-1.2776,-1.2784,-1.2793,-1.2797,-1.2791,-1.279,-1.28,-1.2799,-1.2805,-1.2805,-1.2805,-1.2805,0,-1.2442,-1.2464,-1.2498,-1.2532,-1.2541,-1.256,-1.2589,-1.2607,-1.2625,-1.2653,-1.2661,-1.2688,-1.2717,-1.2739,-1.2777,-1.2787,-1.2819,-1.2823,-1.2809,-1.2811,-1.2822,-1.282,-1.2856,-1.2862,-1.2843,-1.2844,-1.2844,0,-1.2455,-1.2474,-1.251,-1.2526,-1.2542,-1.2568,-1.2586,-1.2607,-1.2626,-1.2659,-1.2673,-1.2703,-1.2728,-1.2774,-1.2797,-1.2826,-1.2831,-1.2841,-1.2835,-1.2829,-1.283,-1.2828,-1.283,-1.2842,-1.2842,-1.2842,-1.2842,0,-1.2475,-1.2485,-1.251,-1.2539,-1.256,-1.2584,-1.2609,-1.2621,-1.2647,-1.2667,-1.2696,-1.2715,-1.2754,-1.2783,-1.2814,-1.2832,-1.2841,-1.2844,-1.2848,-1.2842,-1.2833,-1.2837,-1.281,-1.2843,-1.2843,-1.2843,-1.2842,-1.2842,-1.2486,-1.2503,-1.2531,-1.2559,-1.258,-1.2602,-1.2621,-1.2641,-1.2666,-1.2699,-1.271,-1.274,-1.2768,-1.2811,-1.2829,-1.2853,-1.2853,-1.2859,-1.2861,-1.2862,-1.2861,-1.283,-1.2859,-1.2859,-1.2859,-1.2859,-1.2859,0,-1.2506,-1.2525,-1.255,-1.2584,-1.2605,-1.2613,-1.264,-1.2658,-1.2684,-1.2709,-1.2733,-1.2767,-1.2796,-1.2822,-1.2851,-1.2866,-1.2871,-1.2873,-1.2871,-1.2875,-1.2859,-1.2852,-1.2868,-1.2868,-1.2868,-1.2868,-1.2868,-1.2868,-1.2519,-1.2549,-1.2562,-1.2602,-1.2621,-1.2651,-1.2666,-1.2686,-1.2706,-1.2743,-1.2767,-1.2784,-1.2809,-1.2841,-1.2867,-1.2874,-1.2884,-1.2885,-1.2893,-1.2877,-1.2876,-1.2875,-1.2868,-1.2887,-1.2887,-1.2906,-1.2907,-1.2907]},{"header":{"parameterUnit":"m.s-1","parameterCategory":1,"la1":30.2991,"la2":30.254,"lo1":-89.0895,"lo2":-89.0444,"dy":0.0017,"dx":0.0017,"nx":28,"ny":28,"refTime":"2026-02-09T09:00:00:Z","depth":0,"parameterNumber":3,"parameterNumberName":"V-component_of_WINDS"},"data":[0,0,0,0,0,0,0,0,0,0,0,0,0,0,0,0,0,0,0,0,0,0,0,0,0,0,0,0,0,0,0,0,0,0,0,0,0,0,0,0,0,0,0,0,0,0,0,0,0,0,0,0,0,0,0,0,0,0,2.4314,2.4315,0,2.4425,2.4426,2.4427,2.4447,2.4446,2.4445,2.4444,2.4557,2.4561,2.4564,0,0,0,0,0,0,0,0,0,0,0,0,0,2.4121,2.4124,2.4314,2.4315,2.4317,2.4425,2.4426,2.4428,2.4447,2.4446,2.4445,2.4444,2.4556,2.456,2.4565,0,0,0,0,0,0,0,0,0,0,0,0,0,2.4215,2.4125,2.4314,2.4339,2.4343,2.4424,2.4426,2.4428,2.4447,2.4446,2.4444,2.4443,2.4554,2.456,2.4565,2.4629,0,0,2.4583,2.4586,0,0,0,0,0,0,0,0,2.421,2.4222,2.4334,2.4338,2.4342,2.4421,2.4399,2.4495,2.4448,2.4408,2.4444,2.4442,2.4513,2.4522,2.4545,2.4634,2.4639,2.4584,2.4587,2.459,2.4591,0,0,0,0,0,0,0,2.4203,2.4218,2.4358,2.4336,2.4341,2.4346,2.4358,2.4417,2.4466,2.4411,2.4413,2.4425,2.4514,2.454,2.4548,2.464,2.4583,2.4589,2.4592,2.4594,2.4789,2.479,0,0,0,0,0,0,2.4192,2.4212,2.4354,2.4361,2.4271,2.435,2.4364,2.4397,2.4466,2.4475,2.4427,2.4426,2.4531,2.4541,2.4552,2.4633,2.4589,2.4595,2.4598,2.4787,2.4789,2.4791,0,0,0,0,0,0,2.4188,2.4205,2.435,2.4287,2.4306,2.4355,2.4392,2.44,2.4425,2.4478,2.4486,2.4444,2.453,2.4544,2.461,2.4637,2.4598,2.4603,2.4785,2.4788,2.479,2.4793,0,0,0,0,0,0,2.4182,2.4203,2.4227,2.4288,2.4309,2.4406,2.4394,2.4403,2.4435,2.4435,2.4496,2.4505,2.453,2.4601,2.4616,2.4644,2.4607,2.4783,2.4786,2.4789,2.479,2.4795,2.4799,0,0,0,0,0,2.4175,2.4223,2.4228,2.4245,2.4341,2.4407,2.442,2.4448,2.4437,2.4462,2.4496,2.4503,2.4631,2.4608,2.4624,2.4655,2.4781,2.4785,2.4789,2.4789,2.4794,2.4799,0,0,0,0,0,0,2.4164,2.4231,2.4238,2.4306,2.4351,2.441,2.4443,2.4452,2.4501,2.4499,2.4532,2.4545,2.461,2.4639,2.4612,2.4721,2.4706,2.4713,2.47,2.4705,2.4709,2.4702,2.4612,0,0,0,0,0,2.4169,2.4217,2.4274,2.4329,2.4351,2.4393,2.4423,2.4441,2.4488,2.4507,2.4546,2.4592,2.4643,2.4675,2.4725,2.4795,2.4809,2.4824,2.4828,2.4831,2.4837,2.4878,2.4886,2.4803,2.4803,2.4803,0,0,2.4181,2.4224,2.4252,2.4328,2.4364,2.4414,2.4409,2.4461,2.4499,2.4515,2.458,2.461,2.4664,2.4732,2.4764,2.4758,2.4863,2.4836,2.4838,2.4843,2.4883,2.4891,2.4897,2.4806,2.4806,2.4805,0,0,2.4228,2.4265,2.4316,2.4353,2.4409,2.4437,2.4449,2.4507,2.4528,2.4594,2.4608,2.4653,2.474,2.4778,2.4808,2.4872,2.488,2.4887,2.4909,2.4949,2.4955,2.4961,2.4986,2.4994,2.4893,2.4893,2.4893,0,2.4236,2.4311,2.4341,2.4393,2.4427,2.4445,2.4497,2.4532,2.4601,2.4624,2.4616,2.4726,2.4763,2.4842,2.4857,2.4881,2.4897,2.4881,2.4952,2.4958,2.4964,2.4988,2.4997,2.4893,2.4893,2.4893,2.4893,0,2.4319,2.4371,2.4405,2.4473,2.451,2.4562,2.46,2.4634,2.4649,2.4678,2.4746,2.4791,2.4851,2.4871,2.4886,2.4953,2.4947,2.4945,2.4931,2.4972,2.4995,2.5004,2.4894,2.4894,2.4894,2.4894,0,0,2.4361,2.4445,2.4458,2.4489,2.4553,2.4594,2.4647,2.4706,2.4736,2.4783,2.483,2.4903,2.4903,2.4937,2.4957,2.4991,2.5041,2.4985,2.4987,2.4995,2.5119,2.5121,2.5131,2.5046,2.5048,2.505,2.5115,0,2.4417,2.4514,2.4542,2.4623,2.4673,2.4691,2.4738,2.4783,2.4811,2.4858,2.4889,2.4942,2.4936,2.4957,2.4992,2.5027,2.5066,2.5023,2.5091,2.5093,2.5078,2.5143,2.5145,2.5204,2.5124,2.5126,2.5127,0,2.4495,2.4545,2.4631,2.469,2.4712,2.4754,2.4811,2.4855,2.4906,2.4925,2.4965,2.4982,2.5039,2.5021,2.5102,2.5071,2.5101,2.5123,2.5126,2.5134,2.5113,2.5154,2.5224,2.5233,2.5141,2.514,2.5139,0,2.452,2.4608,2.4672,2.4698,2.4768,2.4797,2.4827,2.4877,2.4912,2.4962,2.4985,2.5041,2.5072,2.5115,2.5147,2.5131,2.5226,2.521,2.5244,2.5243,2.5263,2.5262,2.534,2.528,2.528,2.528,2.528,0,2.458,2.4632,2.4684,2.4723,2.4783,2.4816,2.4874,2.4905,2.495,2.4996,2.5015,2.5058,2.5097,2.5146,2.5171,2.5235,2.5248,2.5265,2.5272,2.5265,2.5263,2.5285,2.5282,2.5282,2.5282,2.5281,2.5281,0,2.4618,2.4654,2.4725,2.4786,2.4802,2.4844,2.4896,2.4936,2.4965,2.5024,2.5039,2.5086,2.5145,2.5181,2.5254,2.5271,2.5342,2.5346,2.5325,2.5328,2.5361,2.5358,2.5457,2.5473,2.5401,2.5401,2.5402,0,2.4654,2.4695,2.4761,2.4793,2.4824,2.4876,2.4912,2.4946,2.4982,2.5045,2.5077,2.5136,2.5186,2.5278,2.5319,2.5376,2.5383,2.5414,2.5391,2.5384,2.5385,2.5383,2.5388,2.5418,2.5418,2.5419,2.5419,0,2.4716,2.4732,2.4783,2.484,2.4882,2.4929,2.4976,2.5002,2.5044,2.5084,2.5144,2.5183,2.5259,2.5318,2.5379,2.5411,2.5423,2.5426,2.5437,2.5431,2.5418,2.5427,2.5337,2.5424,2.5423,2.5423,2.5423,2.5422,2.4755,2.4793,2.4846,2.4902,2.4941,2.4985,2.5025,2.5061,2.5111,2.5176,2.5193,2.5257,2.5309,2.5392,2.5425,2.5476,2.5471,2.5487,2.5491,2.5495,2.5497,2.5408,2.5487,2.5487,2.5487,2.5486,2.5486,0,2.4819,2.4854,2.4906,2.4971,2.5016,2.5023,2.5076,2.5113,2.5168,2.5216,2.5265,2.5335,2.5393,2.5439,2.5499,2.5531,2.5538,2.5546,2.5544,2.5552,2.5496,2.5481,2.5539,2.5539,2.5539,2.5539,2.5539,2.5539,2.4858,2.4923,2.4946,2.5031,2.5066,2.5129,2.5159,2.52,2.5238,2.5315,2.5364,2.5394,2.5441,2.5505,2.5559,2.5571,2.5593,2.56,2.5614,2.5561,2.5555,2.555,2.5536,2.5604,2.5604,2.5665,2.5666,2.5666]}]]